Location: Mascot Post Office (historical)
(40.2645°N, 99.5462°W)
Time: 02:46:05
(UTC+00:00)

Cosmos 2056 Rocket - Pass Details

Date: 14 July 2020
Orbit: 741 x 801 km, 74.0° (Epoch: 14 August)

Event Time Altitude Azimuth Distance (km) Brightness Sun altitude
Rises 04:16:39 0° 341° (NNW) 3,314 8.2 -19.2°
Reaches altitude 10° 04:19:04 10° 343° (NNW) 2,383 7.1 -19.5°
Maximum altitude 04:24:31 82° 71° (ENE) 814 3.5 -20.1°
Enters shadow 04:26:28 41° 153° (SSE) 1,142 3.9 -20.3°
